EN

Hourly Weather Alpandeire

Today, 18 January, Monday

Time Temperature Precipitation Wind Pressure Humidity
00:00 +7°C° 0 mm 1 mps 706 mmHg 67%
01:00 +7°C° 0 mm 1 mps 706 mmHg 65%
02:00 +7°C° 0 mm 1 mps 705 mmHg 63%
03:00 +7°C° 0 mm 1 mps 705 mmHg 61%
04:00 +7°C° 0 mm 1 mps 705 mmHg 61%
05:00 +7°C° 0 mm 1 mps 705 mmHg 61%
06:00 +6°C° 0 mm 1 mps 705 mmHg 60%
07:00 +7°C° 0 mm 1 mps 705 mmHg 59%
08:00 +8°C° 0 mm 1 mps 706 mmHg 59%
09:00 +9°C° 0 mm 1 mps 706 mmHg 58%
10:00 +11°C° 0 mm 1 mps 706 mmHg 53%
11:00 +12°C° 0 mm 1 mps 707 mmHg 49%
12:00 +14°C° 0 mm 1 mps 707 mmHg 45%
13:00 +14°C° 0 mm 1 mps 707 mmHg 46%
14:00 +14°C° 0 mm 1 mps 706 mmHg 47%
15:00 +14°C° 0 mm 1 mps 705 mmHg 48%
16:00 +12°C° 0 mm 1 mps 705 mmHg 57%
17:00 +10°C° 0 mm 1 mps 705 mmHg 66%
18:00 +8°C° 0 mm 1 mps 705 mmHg 75%
19:00 +7°C° 0 mm 1 mps 705 mmHg 72%
20:00 +7°C° 0 mm 1 mps 705 mmHg 69%
21:00 +6°C° 0 mm 1 mps 705 mmHg 67%
22:00 +6°C° 0 mm 1 mps 706 mmHg 65%
23:00 +6°C° 0 mm 1 mps 706 mmHg 63%

Tomorrow, 19 January, Tuesday

Time Temperature Precipitation Wind Pressure Humidity
00:00 +6°C° 0 mm 1 mps 706 mmHg 61%
01:00 +6°C° 0 mm 1 mps 706 mmHg 62%
02:00 +6°C° 0 mm 1 mps 705 mmHg 62%
03:00 +5°C° 0 mm 1 mps 705 mmHg 63%
04:00 +5°C° 0 mm 1 mps 705 mmHg 65%
05:00 +5°C° 0 mm 1 mps 705 mmHg 68%
06:00 +5°C° 0 mm 1 mps 704 mmHg 70%
07:00 +6°C° 0 mm 1 mps 705 mmHg 71%
08:00 +7°C° 0 mm 1 mps 705 mmHg 72%
09:00 +8°C° 0 mm 1 mps 705 mmHg 73%
10:00 +9°C° 0 mm 1 mps 705 mmHg 68%
11:00 +11°C° 0 mm 1 mps 705 mmHg 63%
12:00 +12°C° 0 mm 1 mps 706 mmHg 58%
13:00 +12°C° 0 mm 2 mps 705 mmHg 60%
14:00 +12°C° 0 mm 2 mps 704 mmHg 61%
15:00 +12°C° 0 mm 2 mps 704 mmHg 63%
16:00 +11°C° 0 mm 1 mps 704 mmHg 72%
17:00 +9°C° 0 mm 1 mps 703 mmHg 80%
18:00 +7°C° 0 mm 1 mps 703 mmHg 89%
19:00 +7°C° 0 mm 1 mps 703 mmHg 88%
20:00 +7°C° 0 mm 1 mps 703 mmHg 88%
21:00 +7°C° 0 mm 1 mps 703 mmHg 87%
22:00 +6°C° 0 mm 1 mps 702 mmHg 88%
23:00 +6°C° 0 mm 1 mps 702 mmHg 88%

Day after tomorrow, 20 January, Wednesday

Time Temperature Precipitation Wind Pressure Humidity
00:00 +6°C° 0 mm 1 mps 702 mmHg 89%
01:00 +5°C° 0 mm 2 mps 701 mmHg 89%
02:00 +6°C° 0 mm 2 mps 701 mmHg 90%
03:00 +6°C° 0 mm 2 mps 700 mmHg 90%
04:00 +6°C° 0 mm 2 mps 700 mmHg 90%
05:00 +6°C° 0 mm 2 mps 700 mmHg 90%
06:00 +5°C° 0 mm 3 mps 699 mmHg 90%
07:00 +5°C° 0.1 mm 3 mps 699 mmHg 91%
08:00 +7°C° 0.1 mm 3 mps 699 mmHg 91%
09:00 +6°C° 0.1 mm 4 mps 699 mmHg 91%
10:00 +6°C° 2.5 mm 4 mps 699 mmHg 93%
11:00 +6°C° 2.5 mm 4 mps 698 mmHg 95%
12:00 +7°C° 2.5 mm 4 mps 698 mmHg 96%
13:00 +7°C° 3.2 mm 5 mps 698 mmHg 96%
14:00 +8°C° 3.2 mm 6 mps 697 mmHg 96%
15:00 +8°C° 3.2 mm 6 mps 697 mmHg 96%
16:00 +8°C° 0.3 mm 5 mps 697 mmHg 94%
17:00 +7°C° 0.3 mm 5 mps 697 mmHg 93%
18:00 +6°C° 0.3 mm 4 mps 697 mmHg 91%
19:00 +7°C° 0.2 mm 3 mps 698 mmHg 92%
20:00 +7°C° 0.2 mm 3 mps 699 mmHg 93%
21:00 +7°C° 0.2 mm 3 mps 699 mmHg 94%
22:00 +7°C° 0.1 mm 3 mps 699 mmHg 94%
23:00 +7°C° 0.1 mm 3 mps 700 mmHg 95%

21 January, Thursday

Time Temperature Precipitation Wind Pressure Humidity
00:00 +7°C° 0.1 mm 2 mps 700 mmHg 95%
01:00 +7°C° 0.1 mm 2 mps 700 mmHg 95%
02:00 +7°C° 0.1 mm 2 mps 700 mmHg 95%
03:00 +7°C° 0.1 mm 2 mps 700 mmHg 95%
04:00 +7°C° 0.1 mm 2 mps 700 mmHg 94%
05:00 +7°C° 0.1 mm 2 mps 701 mmHg 94%
06:00 +7°C° 0.1 mm 2 mps 701 mmHg 94%
07:00 +8°C° 0.1 mm 2 mps 701 mmHg 93%
08:00 +8°C° 0.1 mm 2 mps 701 mmHg 92%
09:00 +9°C° 0.1 mm 2 mps 702 mmHg 91%
10:00 +9°C° 0.2 mm 3 mps 702 mmHg 89%
11:00 +10°C° 0.2 mm 4 mps 702 mmHg 87%
12:00 +10°C° 0.2 mm 5 mps 702 mmHg 85%
13:00 +10°C° 0.1 mm 5 mps 702 mmHg 84%
14:00 +10°C° 0.1 mm 5 mps 701 mmHg 83%
15:00 +10°C° 0.1 mm 5 mps 701 mmHg 82%
16:00 +11°C° 0.1 mm 4 mps 701 mmHg 86%
17:00 +10°C° 0.1 mm 4 mps 701 mmHg 89%
18:00 +9°C° 0.1 mm 3 mps 701 mmHg 93%
19:00 +9°C° 0.1 mm 3 mps 701 mmHg 94%
20:00 +9°C° 0.1 mm 3 mps 701 mmHg 94%
21:00 +9°C° 0.1 mm 3 mps 701 mmHg 95%
22:00 +9°C° 0.5 mm 3 mps 701 mmHg 96%
23:00 +10°C° 0.5 mm 3 mps 701 mmHg 97%

22 January, Friday

Time Temperature Precipitation Wind Pressure Humidity
00:00 +10°C° 0.5 mm 4 mps 701 mmHg 97%
01:00 +10°C° 1.3 mm 4 mps 700 mmHg 97%
02:00 +10°C° 1.3 mm 5 mps 700 mmHg 97%
03:00 +10°C° 1.3 mm 5 mps 700 mmHg 97%
04:00 +10°C° 0.4 mm 5 mps 699 mmHg 97%
05:00 +10°C° 0.4 mm 5 mps 699 mmHg 97%
06:00 +10°C° 0.4 mm 4 mps 699 mmHg 96%
07:00 +9°C° 0.2 mm 5 mps 699 mmHg 95%
08:00 +10°C° 0.2 mm 5 mps 700 mmHg 94%
09:00 +10°C° 0.2 mm 5 mps 700 mmHg 93%
10:00 +10°C° 0.2 mm 6 mps 700 mmHg 89%
11:00 +10°C° 0.2 mm 7 mps 701 mmHg 86%
12:00 +11°C° 0.2 mm 7 mps 701 mmHg 82%
13:00 +10°C° 0.2 mm 7 mps 701 mmHg 80%
14:00 +10°C° 0.2 mm 6 mps 701 mmHg 77%
15:00 +10°C° 0.2 mm 6 mps 700 mmHg 75%
16:00 +9°C° 0 mm 5 mps 701 mmHg 77%
17:00 +8°C° 0 mm 5 mps 701 mmHg 79%
18:00 +6°C° 0 mm 5 mps 701 mmHg 82%
19:00 +6°C° 0 mm 4 mps 702 mmHg 83%
20:00 +6°C° 0 mm 4 mps 702 mmHg 84%
21:00 +5°C° 0 mm 3 mps 703 mmHg 85%
22:00 +5°C° 0 mm 3 mps 703 mmHg 86%
23:00 +5°C° 0 mm 3 mps 703 mmHg 87%

23 January, Saturday

Time Temperature Precipitation Wind Pressure Humidity
00:00 +4°C° 0 mm 3 mps 704 mmHg 88%
01:00 +4°C° 0 mm 3 mps 704 mmHg 89%
02:00 +5°C° 0 mm 2 mps 704 mmHg 89%
03:00 +5°C° 0 mm 2 mps 704 mmHg 90%
04:00 +5°C° 0 mm 2 mps 704 mmHg 91%
05:00 +4°C° 0 mm 2 mps 704 mmHg 92%
06:00 +4°C° 0 mm 2 mps 704 mmHg 92%
07:00 +5°C° 0 mm 2 mps 704 mmHg 88%
08:00 +6°C° 0 mm 2 mps 705 mmHg 85%
09:00 +6°C° 0 mm 2 mps 705 mmHg 81%
10:00 +7°C° 0 mm 2 mps 705 mmHg 75%
11:00 +9°C° 0 mm 2 mps 705 mmHg 69%
12:00 +10°C° 0 mm 2 mps 706 mmHg 63%
13:00 +10°C° 0 mm 2 mps 705 mmHg 63%
14:00 +10°C° 0 mm 3 mps 705 mmHg 64%
15:00 +11°C° 0 mm 3 mps 704 mmHg 64%
16:00 +9°C° 0 mm 3 mps 704 mmHg 71%
17:00 +8°C° 0 mm 2 mps 704 mmHg 77%
18:00 +6°C° 0 mm 2 mps 704 mmHg 83%
19:00 +6°C° 0 mm 2 mps 704 mmHg 84%
20:00 +6°C° 0 mm 2 mps 704 mmHg 84%
21:00 +5°C° 0 mm 2 mps 704 mmHg 85%
22:00 +5°C° 0 mm 2 mps 704 mmHg 85%
23:00 +5°C° 0 mm 2 mps 704 mmHg 85%
Show more